Wind_Speed
59 57 53 50 46 41 38 34 28 21 17 18 22 28 38 48 60 72 81 90 99 108 114 120 122 123 122 119 116 113 109 105 101 96 91 84 77 72
57 55 52 49 45 40 36 31 27 22 17 16 19 23 31 41 51 63 72 81 91 100 108 115 120 122 122 121 118 115 111 107 103 99 95 88 81 74
56 54 51 48 44 38 34 30 25 21 17 14 16 20 26 34 44 54 64 72 81 91 101 109 116 121 122 121 119 116 113 109 105 102 97 92 84 77
55 53 49 47 43 37 33 29 24 20 17 14 14 18 22 29 37 46 55 64 73 83 93 103 111 118 122 122 120 118 115 112 108 104 100 95 88 82
54 52 49 46 42 37 32 28 23 19 16 14 14 16 20 26 32 40 48 55 64 74 85 95 105 114 120 122 121 119 116 113 109 106 103 98 92 85
53 51 49 46 42 37 32 27 23 18 16 13 13 16 19 24 29 35 42 49 57 66 76 87 98 108 116 120 120 119 117 115 111 108 105 101 95 89
52 51 49 46 42 37 32 27 22 18 15 13 13 15 18 22 27 32 37 43 50 59 68 80 91 102 111 117 120 120 118 116 112 109 106 103 98 92
51 50 48 46 42 36 31 26 22 17 15 13 12 14 17 21 25 30 35 39 45 53 61 72 84 94 105 114 119 119 118 116 114 111 108 104 100 95
50 49 47 46 41 36 31 25 21 17 14 12 12 14 17 20 24 28 32 36 41 47 55 63 76 87 99 109 116 119 118 116 114 112 109 105 102 97
49 48 46 45 41 36 31 25 20 16 13 11 11 13 16 19 23 27 31 34 38 42 49 56 69 80 92 103 112 117 118 116 114 112 110 107 103 99
49 47 46 44 41 35 30 26 21 17 13 11 11 13 15 18 22 25 29 32 35 39 45 52 62 72 85 96 107 114 116 116 114 112 110 108 104 100
47 47 45 44 41 35 30 25 21 16 13 11 10 12 14 17 21 24 27 30 33 37 42 48 57 67 77 90 101 110 115 116 114 112 110 108 104 101
47 46 44 43 40 35 29 25 21 17 13 10 10 12 14 16 19 22 25 28 31 35 40 46 53 62 72 83 95 105 112 115 114 112 110 108 105 102
47 45 43 42 39 34 29 25 22 17 13 10 9 10 13 15 18 21 23 26 29 32 37 44 51 59 67 76 87 99 108 113 114 112 110 108 105 101
46 45 43 41 38 34 29 25 22 17 13 10 8 8 11 14 16 19 22 24 27 30 36 42 49 56 64 72 81 92 102 109 113 113 111 109 105 101
45 45 43 41 38 35 30 25 21 18 13 9 7 7 8 11 14 17 20 22 24 28 34 41 48 55 61 68 76 85 97 105 110 112 110 108 105 101
44 43 42 41 38 36 32 26 21 17 13 9 6 5 7 9 12 15 18 21 23 26 31 38 46 53 59 65 72 80 89 98 105 108 108 106 104 101
43 42 41 40 38 35 31 26 21 16 13 9 5 4 5 8 11 14 17 19 22 25 29 36 42 49 55 61 69 75 83 91 100 104 106 106 103 101
41 41 41 40 38 35 31 26 20 16 12 9 5 3 4 7 10 13 16 19 21 24 29 34 39 46 53 59 65 72 77 85 93 99 103 103 101 98
40 40 40 39 37 35 31 26 21 16 12 8 5 2 4 6 9 13 16 19 21 24 29 34 39 43 49 54 61 68 73 79 86 92 97 98 98 95
39 39 38 38 37 35 30 26 22 16 11 8 4 1 3 7 10 13 16 19 21 25 29 34 39 43 46 50 56 63 68 74 80 86 91 94 94 94
38 37 37 37 36 34 30 26 22 17 11 8 4 1 4 7 10 13 16 18 22 27 30 34 38 42 45 49 53 59 65 69 73 77 83 88 90 91
36 36 36 36 35 33 30 25 22 17 12 8 4 1 4 8 12 14 16 19 23 27 31 35 39 41 43 47 51 56 61 66 70 73 77 80 82 82
Wind_Direction
340 339 339 338 336 335 333 330 326 316 296 270 250 235 225 220 217 214 213 213 212 211 211 209 208 206 206 206 206 207 207 207 206 206 206 207 208 211
341 341 340 340 338 336 333 330 325 317 303 278 255 237 225 220 217 215 213 212 212 212 211 210 208 206 206 206 206 206 206 206 206 206 206 206 207 209
343 343 342 341 339 337 334 330 324 316 304 282 259 239 226 220 217 214 213 213 213 212 211 210 209 207 205 205 205 205 205 206 206 206 206 206 207 208
344 344 344 343 342 338 335 331 324 314 303 283 258 239 225 218 215 214 214 214 213 213 212 211 209 208 206 205 204 205 205 205 205 206 206 206 207 208
345 346 345 345 344 340 337 332 325 314 302 285 258 238 225 217 213 212 213 214 214 214 213 212 210 208 206 205 204 204 204 205 205 205 206 206 207 208
346 347 347 347 345 342 338 333 327 316 301 284 259 238 224 215 212 211 212 213 214 214 214 213 211 209 207 205 204 204 204 204 205 205 206 206 207 207
348 348 348 348 346 344 340 334 327 317 304 285 259 238 225 215 212 211 211 212 213 214 214 213 212 210 208 206 204 204 204 204 204 205 205 206 206 207
349 349 349 349 347 345 341 336 329 318 305 286 260 240 226 216 212 210 210 211 212 213 214 213 212 211 208 207 205 204 204 204 204 205 205 206 206 207
349 350 350 349 348 347 344 338 332 321 307 287 260 240 226 217 212 210 210 210 211 213 213 213 212 211 209 207 205 204 203 204 204 204 205 206 207 207
349 350 350 350 349 348 346 343 335 325 310 289 262 240 227 218 213 211 210 210 211 212 212 213 212 211 210 208 206 204 203 203 204 204 205 206 206 208
349 350 351 351 350 349 348 345 339 330 316 293 264 241 228 221 216 213 212 211 211 210 210 211 211 210 210 208 207 205 204 203 203 204 205 206 206 208
349 350 351 351 351 350 349 346 340 332 320 299 269 245 231 224 218 215 214 212 211 209 208 208 208 208 208 208 207 205 204 203 203 204 205 205 207 207
350 351 351 351 351 350 349 348 343 335 323 305 273 247 234 227 221 216 214 212 210 209 206 205 205 205 206 206 206 206 205 204 203 204 204 205 206 207
351 351 351 352 352 352 350 348 345 338 328 311 283 252 237 228 221 216 213 211 210 209 206 202 202 202 202 204 205 205 205 204 203 204 204 205 206 207
351 352 352 353 354 353 351 349 346 341 332 318 293 260 239 229 221 214 211 211 211 209 205 201 199 198 199 200 203 204 204 204 204 204 205 206 206 207
351 352 353 354 354 355 353 351 348 344 336 323 298 262 238 225 216 211 209 208 208 207 203 198 195 195 195 197 200 202 204 204 204 204 205 206 207 207
351 352 354 355 355 354 354 352 349 346 341 331 304 263 235 222 214 208 205 204 204 203 200 197 194 193 193 194 196 199 202 203 204 204 204 205 206 207
351 353 354 355 355 355 355 353 350 348 344 337 319 267 231 218 209 203 200 198 197 197 196 193 191 191 191 191 193 196 198 201 203 204 205 206 207 207
351 353 354 355 356 356 356 355 353 350 347 343 331 281 224 212 205 198 195 194 194 192 189 188 189 189 188 188 190 192 195 198 201 204 205 206 206 207
351 352 354 355 356 356 356 357 356 353 350 348 338 284 215 203 198 195 193 192 189 185 184 184 184 184 185 186 187 189 192 195 199 201 204 205 206 207
351 352 354 355 356 356 357 358 358 356 353 351 345 294 209 196 191 188 188 188 186 183 180 180 180 180 181 183 186 187 189 192 196 200 202 204 206 207
350 352 353 355 356 357 357 358 359 358 356 353 347 301 203 190 186 184 184 184 182 180 178 177 177 178 180 182 184 186 186 189 191 196 200 203 206 207
350 351 353 355 356 357 358 358 358 357 356 353 347 284 192 185 182 181 180 180 180 179 178 177 176 177 179 181 181 183 185 187 189 191 195 200 204 206
Height
5373 5358 5343 5330 5318 5306 5296 5287 5280 5275 5273 5271 5270 5272 5277 5285 5295 5307 5323 5339 5357 5377 5399 5423 5447 5472 5497 5521 5545 5568 5589 5611 5630 5648 5666 5681 5695 5709
5368 5354 5340 5327 5315 5304 5295 5286 5279 5273 5270 5269 5268 5269 5273 5279 5287 5299 5313 5327 5343 5362 5382 5404 5429 5453 5478 5503 5527 5551 5574 5596 5616 5635 5653 5669 5684 5697
5364 5350 5337 5324 5312 5302 5293 5285 5278 5273 5269 5268 5267 5267 5270 5275 5283 5293 5305 5318 5333 5349 5367 5388 5411 5435 5460 5485 5510 5535 5558 5580 5601 5621 5639 5657 5672 5687
5361 5347 5334 5322 5310 5299 5291 5283 5277 5272 5268 5266 5266 5266 5269 5273 5280 5288 5299 5311 5324 5338 5355 5374 5396 5419 5443 5468 5493 5518 5542 5564 5586 5607 5628 5646 5661 5674
5358 5345 5332 5319 5308 5298 5289 5281 5275 5270 5267 5265 5265 5265 5267 5271 5277 5284 5294 5304 5316 5329 5344 5361 5381 5404 5427 5452 5477 5502 5527 5553 5575 5595 5612 5630 5647 5662
5355 5342 5329 5317 5305 5296 5287 5280 5274 5269 5266 5264 5263 5264 5266 5270 5274 5281 5290 5299 5310 5321 5334 5350 5369 5390 5413 5439 5467 5491 5514 5535 5557 5578 5599 5618 5635 5651
5353 5339 5326 5314 5303 5293 5285 5278 5272 5268 5264 5262 5262 5263 5265 5268 5272 5278 5286 5294 5304 5314 5326 5341 5359 5381 5402 5425 5449 5473 5498 5521 5543 5564 5585 5604 5623 5640
5350 5337 5324 5313 5302 5292 5283 5276 5270 5266 5263 5261 5260 5261 5263 5266 5270 5275 5282 5289 5299 5309 5320 5333 5349 5368 5388 5411 5435 5459 5483 5506 5529 5551 5572 5592 5610 5627
5348 5335 5323 5311 5300 5291 5282 5275 5269 5265 5262 5260 5259 5260 5261 5264 5268 5273 5278 5285 5293 5302 5313 5326 5340 5358 5376 5398 5421 5446 5470 5493 5516 5538 5559 5579 5598 5616
5346 5334 5322 5310 5299 5289 5281 5274 5268 5264 5260 5258 5258 5258 5259 5262 5265 5270 5275 5281 5288 5297 5307 5319 5332 5348 5366 5387 5410 5434 5458 5481 5503 5525 5547 5567 5586 5604
5344 5332 5320 5309 5298 5288 5280 5273 5267 5263 5259 5257 5256 5256 5257 5259 5262 5266 5271 5277 5284 5292 5301 5311 5324 5339 5356 5377 5398 5422 5445 5468 5491 5513 5534 5554 5574 5591
5342 5330 5318 5307 5296 5287 5279 5272 5266 5262 5258 5256 5255 5255 5255 5257 5259 5263 5267 5272 5278 5286 5294 5304 5315 5329 5347 5365 5386 5409 5432 5455 5478 5500 5522 5542 5561 5579
5340 5329 5317 5306 5295 5286 5278 5271 5265 5261 5257 5254 5253 5253 5253 5255 5257 5260 5264 5268 5274 5280 5288 5297 5308 5321 5337 5355 5375 5397 5419 5442 5465 5487 5509 5529 5549 5568
5338 5327 5316 5305 5295 5285 5277 5270 5264 5259 5256 5253 5251 5251 5251 5252 5254 5257 5260 5265 5270 5275 5282 5291 5301 5313 5328 5345 5365 5386 5408 5431 5454 5476 5498 5518 5537 5556
5336 5325 5314 5303 5293 5284 5276 5269 5263 5258 5254 5252 5250 5249 5249 5250 5252 5254 5257 5261 5266 5271 5277 5285 5295 5306 5320 5337 5355 5375 5397 5419 5442 5464 5485 5506 5527 5546
5333 5323 5312 5302 5292 5283 5275 5268 5263 5258 5254 5251 5249 5248 5248 5249 5250 5252 5255 5258 5263 5268 5273 5281 5290 5301 5315 5330 5347 5366 5387 5409 5432 5454 5475 5496 5516 5536
5332 5322 5311 5301 5291 5282 5275 5268 5262 5257 5253 5250 5248 5247 5247 5248 5249 5251 5253 5257 5261 5265 5271 5278 5287 5297 5309 5323 5340 5358 5379 5401 5423 5444 5465 5486 5506 5527
5331 5321 5311 5301 5291 5282 5274 5267 5262 5257 5253 5250 5248 5247 5247 5248 5249 5250 5253 5256 5260 5264 5270 5277 5285 5295 5306 5320 5335 5352 5371 5393 5414 5435 5456 5477 5497 5518
5330 5320 5310 5300 5291 5282 5274 5267 5261 5257 5253 5251 5249 5248 5248 5248 5249 5251 5253 5256 5260 5264 5270 5277 5284 5294 5305 5317 5331 5347 5366 5385 5405 5426 5447 5470 5492 5512
5328 5319 5309 5300 5291 5282 5274 5267 5261 5257 5254 5251 5250 5248 5248 5249 5250 5251 5254 5257 5260 5265 5271 5277 5285 5294 5305 5316 5329 5344 5360 5379 5398 5420 5441 5462 5484 5503
5327 5318 5309 5299 5291 5282 5274 5268 5262 5258 5254 5252 5251 5249 5249 5249 5251 5252 5255 5258 5262 5266 5272 5279 5286 5295 5305 5316 5329 5343 5358 5375 5394 5414 5435 5454 5472 5490
5326 5317 5308 5299 5290 5282 5275 5268 5263 5258 5255 5253 5251 5250 5250 5250 5252 5254 5256 5260 5263 5268 5274 5281 5288 5297 5307 5318 5329 5342 5356 5372 5389 5409 5429 5449 5466 5485
5324 5316 5308 5299 5291 5282 5275 5269 5263 5259 5256 5254 5252 5251 5251 5252 5253 5256 5258 5262 5266 5271 5277 5284 5291 5300 5309 5319 5330 5342 5355 5370 5386 5404 5422 5442 5462 5483